Flag for Hungary Weather past 2 weeks in Miskolc, Hungary

Now
62 °F

Passing clouds.


Feels Like: 62 °F
Forecast: 49 / 80 °F
Wind: 1 mph from Southwest

Location: Miskolc

Current Time: Jul 31, 2015 at 11:36:20 PM

Latest Report: Jul 31, 2015 at 10:00 PM


Visibility: 22 mi

Pressure: 30.06 "Hg

Humidity: 59%

Dew point: 47 °F

Location of MiskolcLocation

Historic Weather in Miskolc — Graph

°F

Miskolc temperature yesterday

Maximum temperature yesterday: 73 °F (at 5:00 PM)
Minimum temperature yesterday: 59 °F (at 12:00 AM)
Average temperature yesterday: 65 °F

Past Weeks' High & Low Weather Summary

 TemperatureHumidityPressure
High98 °F (Jul 23, 3:00 PM)87% (Jul 30, 10:00 AM)30.10 "Hg (Jul 30, 10:00 AM)
Low56 °F (Jul 31, 3:00 AM)26% (Jul 22, 5:00 PM)29.66 "Hg (Jul 25, 6:00 PM)
Average74 °F59%29.89 "Hg
* Reported Jul 16 10:00 PM — Jul 31 10:00 PM, Miskolc, Weather by CustomWeather, © 2015

Note: Actual official high and low records may vary slightly from our data, if they occured in-between our weather recording intervals... More about our weather records

Advertising

Miskolc weather history for previous 24 hours

 ConditionsComfort  
Time TempWeatherWind HumidityBarometerVisibility
10:00 PM
Fri, Jul 31
62 °FPassing clouds.1 mph59%30.06 "Hg22 mi
9:00 PM65 °FPassing clouds.No wind48%30.03 "Hg22 mi
8:00 PM72 °FSunny.2 mph35%30.00 "Hg22 mi
7:00 PM74 °FPassing clouds.2 mph32%29.99 "Hg22 mi
6:00 PM76 °FPassing clouds.2 mph30%29.98 "Hg22 mi
5:00 PM76 °FPassing clouds.3 mph31%29.98 "Hg22 mi
4:00 PM76 °FPassing clouds.3 mph29%29.98 "Hg22 mi
3:00 PM76 °FPartly sunny.3 mph29%29.99 "Hg22 mi
2:00 PM75 °FPartly sunny.3 mph34%29.99 "Hg22 mi
1:00 PM72 °FOvercast.3 mph40%30.00 "Hg22 mi
12:00 PM72 °FOvercast.3 mph42%30.00 "Hg22 mi
11:00 AM71 °FOvercast.3 mph43%29.99 "Hg22 mi
10:00 AM69 °FOvercast.2 mph44%29.98 "Hg22 mi
9:00 AM69 °FOvercast.2 mph45%29.96 "Hg22 mi
8:00 AM68 °FPartly sunny.1 mph55%29.96 "Hg19 mi
7:00 AM61 °FPartly sunny.1 mph75%29.98 "Hg19 mi
6:00 AM58 °FOvercast.1 mph80%29.98 "Hg19 mi
4:00 AM57 °FPassing clouds.1 mph78%29.98 "Hg19 mi
3:00 AM56 °FPassing clouds.No wind80%29.97 "Hg16 mi
2:00 AM56 °FPassing clouds.No wind78%29.96 "Hg19 mi
1:00 AM58 °FPassing clouds.1 mph76%29.96 "Hg19 mi
12:00 AM58 °FPassing clouds.No wind75%29.96 "Hg19 mi
Weather by CustomWeather, © 2015

See weather overviewHow to use our weather pages